• In Lithuania
  • List of Countries
  • For 7 days
  • Water Temperature
  • Satellite Maps
  • Weather Map
  • Weather Widgets
  • user-avatar
    Login

    Hourly Weather Koudougou

    Today, 22 February, Thursday

    Time Temperature Precipitation Wind Pressure Humidity
    00:00 +31°C° 0 mm 3 mps 729 mmHg 27%
    01:00 +30°C° 0 mm 3 mps 729 mmHg 34%
    02:00 +30°C° 0 mm 3 mps 729 mmHg 41%
    03:00 +29°C° 0 mm 3 mps 728 mmHg 48%
    04:00 +28°C° 0 mm 3 mps 728 mmHg 51%
    05:00 +28°C° 0 mm 2 mps 728 mmHg 54%
    06:00 +28°C° 0 mm 3 mps 728 mmHg 58%
    07:00 +30°C° 0 mm 3 mps 729 mmHg 54%
    08:00 +33°C° 0 mm 4 mps 729 mmHg 50%
    09:00 +34°C° 0 mm 5 mps 729 mmHg 46%
    10:00 +36°C° 0 mm 4 mps 729 mmHg 37%
    11:00 +38°C° 0 mm 4 mps 729 mmHg 29%
    12:00 +39°C° 0 mm 2 mps 729 mmHg 20%
    13:00 +40°C° 0 mm 2 mps 729 mmHg 18%
    14:00 +41°C° 0 mm 2 mps 728 mmHg 16%
    15:00 +42°C° 0 mm 2 mps 728 mmHg 14%
    16:00 +41°C° 0 mm 2 mps 727 mmHg 15%
    17:00 +40°C° 0 mm 2 mps 727 mmHg 15%
    18:00 +40°C° 0 mm 2 mps 727 mmHg 16%
    19:00 +38°C° 0 mm 2 mps 728 mmHg 17%
    20:00 +36°C° 0 mm 2 mps 728 mmHg 18%
    21:00 +35°C° 0 mm 2 mps 728 mmHg 20%
    22:00 +33°C° 0 mm 1 mps 728 mmHg 20%
    23:00 +32°C° 0 mm 1 mps 728 mmHg 21%

    Tomorrow, 23 February, Friday

    Time Temperature Precipitation Wind Pressure Humidity
    00:00 +32°C° 0 mm 1 mps 728 mmHg 22%
    01:00 +31°C° 0 mm 1 mps 728 mmHg 24%
    02:00 +30°C° 0 mm 1 mps 728 mmHg 27%
    03:00 +29°C° 0 mm 1 mps 727 mmHg 30%
    04:00 +30°C° 0.1 mm 1 mps 727 mmHg 29%
    05:00 +30°C° 0.1 mm 2 mps 728 mmHg 27%
    06:00 +30°C° 0.1 mm 3 mps 728 mmHg 26%
    07:00 +33°C° 0.1 mm 3 mps 728 mmHg 24%
    08:00 +34°C° 0.1 mm 4 mps 729 mmHg 23%
    09:00 +36°C° 0.1 mm 4 mps 729 mmHg 21%
    10:00 +37°C° 0 mm 4 mps 729 mmHg 22%
    11:00 +40°C° 0 mm 4 mps 729 mmHg 23%
    12:00 +41°C° 0 mm 4 mps 729 mmHg 24%
    13:00 +41°C° 0 mm 4 mps 728 mmHg 24%
    14:00 +41°C° 0 mm 4 mps 728 mmHg 23%
    15:00 +42°C° 0 mm 4 mps 727 mmHg 23%
    16:00 +41°C° 0 mm 4 mps 727 mmHg 25%
    17:00 +41°C° 0 mm 4 mps 727 mmHg 26%
    18:00 +40°C° 0 mm 4 mps 727 mmHg 28%
    19:00 +38°C° 0.1 mm 4 mps 728 mmHg 31%
    20:00 +37°C° 0.1 mm 4 mps 728 mmHg 34%
    21:00 +36°C° 0.1 mm 5 mps 729 mmHg 37%
    22:00 +36°C° 0 mm 5 mps 729 mmHg 38%
    23:00 +35°C° 0 mm 5 mps 729 mmHg 40%

    Day after tomorrow, 24 February, Saturday

    Time Temperature Precipitation Wind Pressure Humidity
    00:00 +35°C° 0 mm 5 mps 729 mmHg 42%
    01:00 +34°C° 0 mm 4 mps 729 mmHg 43%
    02:00 +34°C° 0 mm 4 mps 728 mmHg 44%
    03:00 +34°C° 0 mm 4 mps 728 mmHg 45%
    04:00 +33°C° 1.1 mm 4 mps 729 mmHg 48%
    05:00 +32°C° 1.1 mm 4 mps 729 mmHg 51%
    06:00 +30°C° 1.1 mm 3 mps 729 mmHg 55%
    07:00 +32°C° 0.1 mm 4 mps 730 mmHg 52%
    08:00 +33°C° 0.1 mm 5 mps 730 mmHg 49%
    09:00 +34°C° 0.1 mm 6 mps 731 mmHg 46%
    10:00 +35°C° 0 mm 6 mps 731 mmHg 42%
    11:00 +38°C° 0 mm 6 mps 731 mmHg 37%
    12:00 +39°C° 0 mm 6 mps 731 mmHg 33%
    13:00 +40°C° 0 mm 5 mps 730 mmHg 29%
    14:00 +40°C° 0 mm 5 mps 729 mmHg 25%
    15:00 +41°C° 0 mm 4 mps 729 mmHg 22%
    16:00 +41°C° 0 mm 4 mps 729 mmHg 21%
    17:00 +40°C° 0 mm 4 mps 729 mmHg 19%
    18:00 +39°C° 0 mm 3 mps 729 mmHg 18%
    19:00 +38°C° 0 mm 3 mps 730 mmHg 19%
    20:00 +36°C° 0 mm 3 mps 730 mmHg 20%
    21:00 +35°C° 0 mm 3 mps 731 mmHg 21%
    22:00 +34°C° 0 mm 3 mps 731 mmHg 22%
    23:00 +34°C° 0 mm 3 mps 731 mmHg 23%

    25 February, Sunday

    Time Temperature Precipitation Wind Pressure Humidity
    00:00 +33°C° 0 mm 3 mps 731 mmHg 23%
    01:00 +32°C° 0 mm 4 mps 731 mmHg 25%
    02:00 +32°C° 0 mm 4 mps 731 mmHg 26%
    03:00 +30°C° 0 mm 4 mps 731 mmHg 27%
    04:00 +29°C° 0 mm 3 mps 731 mmHg 32%
    05:00 +29°C° 0 mm 3 mps 732 mmHg 37%
    06:00 +28°C° 0 mm 3 mps 732 mmHg 42%
    07:00 +30°C° 0 mm 3 mps 732 mmHg 41%
    08:00 +31°C° 0 mm 3 mps 733 mmHg 41%
    09:00 +33°C° 0 mm 4 mps 733 mmHg 41%
    10:00 +35°C° 0 mm 4 mps 733 mmHg 34%
    11:00 +36°C° 0 mm 4 mps 733 mmHg 27%
    12:00 +38°C° 0 mm 4 mps 732 mmHg 21%
    13:00 +40°C° 0 mm 4 mps 731 mmHg 19%
    14:00 +40°C° 0 mm 3 mps 731 mmHg 18%
    15:00 +40°C° 0 mm 3 mps 730 mmHg 16%
    16:00 +40°C° 0 mm 3 mps 730 mmHg 16%
    17:00 +39°C° 0 mm 2 mps 730 mmHg 16%
    18:00 +39°C° 0 mm 2 mps 730 mmHg 16%
    19:00 +38°C° 0 mm 2 mps 731 mmHg 17%
    20:00 +37°C° 0 mm 3 mps 731 mmHg 18%
    21:00 +36°C° 0 mm 3 mps 732 mmHg 18%
    22:00 +35°C° 0 mm 3 mps 732 mmHg 19%
    23:00 +35°C° 0 mm 3 mps 732 mmHg 20%

    26 February, Monday

    Time Temperature Precipitation Wind Pressure Humidity
    00:00 +34°C° 0 mm 3 mps 732 mmHg 21%
    01:00 +32°C° 0 mm 2 mps 731 mmHg 23%
    02:00 +31°C° 0 mm 2 mps 731 mmHg 25%
    03:00 +30°C° 0 mm 2 mps 730 mmHg 27%
    04:00 +30°C° 0 mm 2 mps 730 mmHg 28%
    05:00 +30°C° 0 mm 2 mps 731 mmHg 29%
    06:00 +29°C° 0 mm 2 mps 731 mmHg 31%
    07:00 +31°C° 0 mm 2 mps 732 mmHg 30%
    08:00 +32°C° 0 mm 2 mps 732 mmHg 28%
    09:00 +35°C° 0 mm 2 mps 733 mmHg 27%
    10:00 +37°C° 0 mm 3 mps 732 mmHg 25%
    11:00 +38°C° 0 mm 3 mps 732 mmHg 22%
    12:00 +41°C° 0 mm 4 mps 732 mmHg 20%
    13:00 +41°C° 0 mm 4 mps 731 mmHg 19%
    14:00 +42°C° 0 mm 3 mps 730 mmHg 18%
    15:00 +42°C° 0 mm 3 mps 729 mmHg 17%
    16:00 +42°C° 0 mm 3 mps 730 mmHg 18%
    17:00 +40°C° 0 mm 3 mps 730 mmHg 19%
    18:00 +40°C° 0 mm 3 mps 730 mmHg 19%
    19:00 +39°C° 0 mm 3 mps 731 mmHg 22%
    20:00 +38°C° 0 mm 3 mps 731 mmHg 25%
    21:00 +37°C° 0 mm 4 mps 732 mmHg 27%
    22:00 +36°C° 0 mm 3 mps 731 mmHg 30%
    23:00 +35°C° 0 mm 3 mps 731 mmHg 32%

    27 February, Tuesday

    Time Temperature Precipitation Wind Pressure Humidity
    00:00 +34°C° 0 mm 2 mps 731 mmHg 35%
    01:00 +34°C° 0 mm 2 mps 731 mmHg 36%
    02:00 +32°C° 0 mm 1 mps 730 mmHg 38%
    03:00 +31°C° 0 mm 1 mps 730 mmHg 40%
    04:00 +31°C° 0 mm 1 mps 730 mmHg 41%
    05:00 +30°C° 0 mm 1 mps 730 mmHg 42%
    06:00 +30°C° 0 mm 1 mps 730 mmHg 43%
    07:00 +32°C° 0 mm 1 mps 731 mmHg 38%
    08:00 +33°C° 0 mm 1 mps 731 mmHg 34%
    09:00 +36°C° 0 mm 2 mps 732 mmHg 29%
    10:00 +38°C° 0 mm 2 mps 732 mmHg 25%
    11:00 +40°C° 0 mm 3 mps 731 mmHg 20%
    12:00 +43°C° 0 mm 4 mps 731 mmHg 16%
    13:00 +43°C° 0 mm 4 mps 730 mmHg 15%
    14:00 +44°C° 0 mm 4 mps 730 mmHg 14%
    15:00 +44°C° 0 mm 4 mps 729 mmHg 14%
    16:00 +44°C° 0 mm 4 mps 729 mmHg 14%
    17:00 +43°C° 0 mm 4 mps 729 mmHg 14%
    18:00 +42°C° 0 mm 3 mps 729 mmHg 14%
    19:00 +40°C° 0 mm 3 mps 730 mmHg 15%
    20:00 +39°C° 0 mm 3 mps 731 mmHg 16%
    21:00 +38°C° 0 mm 3 mps 731 mmHg 17%
    22:00 +37°C° 0 mm 3 mps 731 mmHg 17%
    23:00 +36°C° 0 mm 3 mps 731 mmHg 18%
    Show more